NOAA 17 DEB, 48178

Orbit data source: Space-Track

NOAA 17 DEB, 48178 is space debris in SSO originally from a launch on Mon, 24 Jun 2002 UTC launched from the Air Force Western Test Range (AFWTR). Debris objects in space refer to the collection of defunct objects orbiting the Earth. Examples of debris include non-operational satellites, rocket bodies, and fragments generated from explosions, collisions, or faulty payload assembly.

Loading next visibility...
Identifier
48178, 2002-032T
Orbit
SSO
Country
Flag of USUS
Related business
Manufacturer
Unknown
Mission
Spacecraft
Bus & Motor
Unknown
Mass
Unknown
Launch date (UTC)
2002-06-24 (23 years ago)
Launch vehicle
Unknown
Launch site
Air Force Western Test Range (AFWTR)
Object type
Payload
Rocket body
Debris
Shape & HBR
Unknown shape, 0.1 m
Radar Cross Section
Small (<0.1 m²)

Expand to show TLE details & history
Last TLE update: 1 day ago

TLE from 1 day ago
0 NOAA 17 DEB
1 48178U 02032T   25349.47474406  .00005317  00000-0  13571-2 0  9999
2 48178  98.8645 350.5641 0009973  82.8086 277.4240 14.50928419247321
Epoch: 2025-12-15T11:23Z
TLE epoch observation values (Epoch: 2025-12-15T11:23:37.886Z)
Latitude
-0.0001°
Longitude
95.28347°
Altitude
724.661 km
Speed
7.493 km/s
True Right ascension
23h 22m 15s
True Declination
0° 00' 00"
Sunlit
Object was in daylight at epoch
Visualization orbit readout
Latitude
Unknown
Longitude
Unknown
Altitude
Unknown
Speed
Unknown
Apparent Right ascension
Unknown
Apparent Declination
Unknown
Sunlit
N/A
Visualization observer readout
Local Sidereal Time
11:30:57
Azimuth
Unknown
Elevation
Unknown
Doppler factor
Unknown
Orbital elements
Apogee altitude
726.821 km
Perigee altitude
712.664 km
Semi-major axis
7,097.88 km
Eccentricity
0.001
Inclination
98.8645°
RAAN
350.5641°
Arg. of periapsis
82.8086°
True anomaly
277.31066°
Mean anomaly
277.424°
Eccentric anomaly
277.36733°
Mean motion
3.62953 °/min
Orbital period
99.19 mins
BSTAR
0.0013571
Loading maneuver chart data...
Computing Atmospheric mass density...
Loading historical data...
Loading historical data...
Loading historical data...
Loading historical data...
Loading historical data...
Loading historical data...
Loading historical data...

Documentation

Showing up to 5 results
|